User: anonymous   Login
Location: Unspecified
(0.0000°N, 0.0000°E)
Time: 19:18:35
(UTC+00:00)
Language:

MetOp-A - Orbit

View from above orbital plane
View from above orbital plane
View from above satellite
View from above satellite

Ground track
Ground track

The orbit data is extracted from the following two-line orbital elements,

1 29499U 06044A   21267.51997625  .00000014  00000-0  25546-4 0  9990
2 29499  98.4637 302.7930 0001293  67.8082  65.2566 14.21510919774812
Epoch (UTC): 24 September 2021 12:28:45
Eccentricity: 0.0001293
inclination: 98.4637°
perigee height: 819 km
apogee height: 821 km
right ascension of ascending node: 302.7930°
argument of perigee: 67.8082°
revolutions per day: 14.21510919
mean anomaly at epoch: 65.2566°
orbit number at epoch: 77481

The dashed part of the orbit path shows where the satellite is in the earth's shadow,  

DLR